Location: Rumah Dana
(3.1167°N, 113.0167°E)
Time: 04:32:00
(UTC+00:00)

Cosmos 1535 Rocket - Pass Details

Date: 20 January 2026
Orbit: 948 x 1003 km, 83.0° (Epoch: 10 February)

Event Time Altitude Azimuth Distance (km) Brightness Sun altitude
Rises 11:36:23 0° 4° (N) 3,689 7.3 -14.5°
Reaches altitude 10° 11:38:58 10° 8° (N) 2,735 6.6 -15.2°
Maximum altitude 11:45:07 59° 87° (E) 1,118 4.5 -16.6°
Drops below altitude 10° 11:51:12 10° 165° (SSE) 2,705 6.9 -18.0°
Sets 11:53:43 0° 169° (SSE) 3,645 7.6 -18.6°
